Location: Aalen
(48.8330°N, 10.1000°E)
Time: 09:34:58
(UTC+01:00)

N. Korean satellite - Pass Details

Date: 09 December 2022
Orbit: 407 x 442 km, 97.3° (Epoch: 04 February)

Event Time Altitude Azimuth Distance (km) Brightness Sun altitude
Rises 05:54:41 0° 11° (N) 2,506 10.2 -19.7°
Reaches altitude 10° 05:56:45 10° 9° (N) 1,619 9.2 -19.4°
Maximum altitude 06:00:13 72° 285° (WNW) 486 6.3 -18.8°
Drops below altitude 10° 06:03:35 10° 201° (SSW) 1,576 9.1 -18.3°
Sets 06:05:35 0° 199° (SSW) 2,432 10.1 -18.0°
